| time (UTC) | temp F | wind direction | speed MPH | gust MPH | rain 1hr in | rain 24hr in | rain mn in | humidity % | barometer mb |
| 20260503204139 | 54 | 315 | 2.0 | 3.0 | 0.00 | 0.00 | 0.00 | 56 | 1016.0 |
| 20260503203628 | 54 | 315 | 2.0 | 4.0 | 0.00 | 0.00 | 0.00 | 57 | 1016.0 |
| 20260503203117 | 54 | 315 | 2.0 | 4.0 | 0.00 | 0.00 | 0.00 | 57 | 1016.0 |
| 20260503202607 | 55 | 315 | 2.0 | 4.0 | 0.00 | 0.00 | 0.00 | 57 | 1016.0 |
| 20260503201545 | 55 | 315 | 2.0 | 7.0 | 0.00 | 0.00 | 0.00 | 57 | 1016.0 |
| 20260503201035 | 55 | 315 | 2.0 | 5.0 | 0.00 | 0.00 | 0.00 | 57 | 1016.0 |
| 20260503200013 | 55 | 315 | 1.0 | 4.0 | 0.00 | 0.00 | 0.00 | 57 | 1016.1 |
| 20260503195503 | 55 | 315 | 2.0 | 4.0 | 0.00 | 0.00 | 0.00 | 57 | 1016.1 |
| 20260503194952 | 55 | 315 | 2.0 | 3.0 | 0.00 | 0.00 | 0.00 | 57 | 1016.1 |
| 20260503194441 | 55 | 315 | 1.0 | 3.0 | 0.00 | 0.00 | 0.00 | 56 | 1016.1 |
| 20260503193931 | 55 | 315 | 1.0 | 3.0 | 0.00 | 0.00 | 0.00 | 56 | 1016.2 |
| 20260503193420 | 55 | 315 | 2.0 | 4.0 | 0.00 | 0.00 | 0.00 | 55 | 1016.2 |
| 20260503192909 | 56 | 315 | 1.0 | 3.0 | 0.00 | 0.00 | 0.00 | 55 | 1016.2 |
| 20260503192359 | 56 | 315 | 2.0 | 3.0 | 0.00 | 0.00 | 0.00 | 55 | 1016.1 |
| 20260503191848 | 56 | 315 | 2.0 | 4.0 | 0.00 | 0.00 | 0.00 | 54 | 1016.2 |
| 20260503191337 | 56 | 315 | 1.0 | 3.0 | 0.00 | 0.00 | 0.00 | 53 | 1016.2 |
| 20260503190827 | 56 | 315 | 1.0 | 3.0 | 0.00 | 0.00 | 0.00 | 53 | 1016.2 |
| 20260503190316 | 57 | 315 | 2.0 | 5.0 | 0.00 | 0.00 | 0.00 | 52 | 1016.1 |
| 20260503185805 | 57 | 315 | 2.0 | 5.0 | 0.00 | 0.00 | 0.00 | 52 | 1016.0 |
| 20260503185254 | 57 | 315 | 2.0 | 4.0 | 0.00 | 0.00 | 0.00 | 51 | 1016.0 |
| 20260503184743 | 57 | 315 | 2.0 | 6.0 | 0.00 | 0.00 | 0.00 | 50 | 1016.0 |
| 20260503183722 | 58 | 315 | 1.0 | 3.0 | 0.00 | 0.00 | 0.00 | 49 | 1016.0 |
| 20260503183211 | 58 | 315 | 1.0 | 4.0 | 0.00 | 0.00 | 0.00 | 48 | 1015.9 |
| 20260503182700 | 59 | 315 | 2.0 | 6.0 | 0.00 | 0.00 | 0.00 | 48 | 1015.9 |
| 20260503182149 | 60 | 315 | 2.0 | 4.0 | 0.00 | 0.00 | 0.00 | 46 | 1015.8 |
| 20260503181638 | 60 | 315 | 2.0 | 3.0 | 0.00 | 0.00 | 0.00 | 45 | 1015.7 |
| 20260503181127 | 61 | 315 | 1.0 | 2.0 | 0.00 | 0.00 | 0.00 | 43 | 1015.8 |
| 20260503180616 | 62 | 315 | 2.0 | 7.0 | 0.00 | 0.00 | 0.00 | 42 | 1015.8 |
| 20260503180105 | 63 | 315 | 2.0 | 3.0 | 0.00 | 0.00 | 0.00 | 41 | 1015.8 |
| 20260503175554 | 65 | 315 | 2.0 | 4.0 | 0.00 | 0.00 | 0.00 | 40 | 1015.8 |
| 20260503175043 | 67 | 315 | 1.0 | 3.0 | 0.00 | 0.00 | 0.00 | 38 | 1015.7 |
| 20260503174531 | 68 | 315 | 2.0 | 5.0 | 0.00 | 0.00 | 0.00 | 36 | 1015.8 |
| 20260503174020 | 69 | 315 | 2.0 | 6.0 | 0.00 | 0.00 | 0.00 | 36 | 1015.7 |
| 20260503173509 | 70 | 315 | 1.0 | 5.0 | 0.00 | 0.00 | 0.00 | 34 | 1015.9 |
| 20260503172957 | 72 | 315 | 1.0 | 3.0 | 0.00 | 0.00 | 0.00 | 33 | 1015.8 |
| 20260503172445 | 72 | 315 | 2.0 | 4.0 | 0.00 | 0.00 | 0.00 | 33 | 1015.8 |
| 20260503171934 | 73 | 315 | 2.0 | 4.0 | 0.00 | 0.00 | 0.00 | 33 | 1015.8 |
| 20260503171422 | 73 | 315 | 2.0 | 4.0 | 0.00 | 0.00 | 0.00 | 32 | 1015.9 |
| 20260503170910 | 74 | 315 | 2.0 | 6.0 | 0.00 | 0.00 | 0.00 | 31 | 1015.7 |
| 20260503170358 | 74 | 315 | 3.0 | 5.0 | 0.00 | 0.00 | 0.00 | 31 | 1015.8 |
| 20260503160135 | 77 | 315 | 2.0 | 4.0 | 0.00 | 0.00 | 0.00 | 28 | 1016.0 |
| 20260503150934 | 78 | 315 | 3.0 | 7.0 | 0.00 | 0.00 | 0.00 | 30 | 1016.2 |
| 20260503150422 | 78 | 315 | 3.0 | 6.0 | 0.00 | 0.00 | 0.00 | 28 | 1016.3 |
| 20260503130956 | 75 | 315 | 2.0 | 3.0 | 0.00 | 0.00 | 0.00 | 34 | 1017.5 |
| 20260503130444 | 74 | 315 | 2.0 | 4.0 | 0.00 | 0.00 | 0.00 | 34 | 1017.4 |
| 20260503110515 | 69 | 315 | 3.0 | 6.0 | 0.00 | 0.00 | 0.00 | 41 | 1018.5 |
| 20260503100258 | 65 | 315 | 2.0 | 4.0 | 0.00 | 0.00 | 0.00 | 52 | 1019.2 |
| 20260503080858 | 55 | 315 | 2.0 | 4.0 | 0.00 | 0.00 | 0.00 | 71 | 1019.7 |
| 20260503072734 | 52 | 315 | 3.0 | 5.0 | 0.00 | 0.00 | 0.00 | 77 | 1019.7 |
| 20260503071713 | 51 | 315 | 2.0 | 5.0 | 0.00 | 0.00 | 0.00 | 76 | 1019.4 |
| 20260503071202 | 51 | 315 | 2.0 | 6.0 | 0.00 | 0.00 | 0.00 | 76 | 1019.5 |
| 20260503070652 | 51 | 315 | 3.0 | 6.0 | 0.00 | 0.00 | 0.00 | 76 | 1019.6 |
| 20260503054917 | 48 | 315 | 2.0 | 5.0 | 0.00 | 0.00 | 0.00 | 75 | 1018.7 |
| 20260503054406 | 48 | 315 | 2.0 | 4.0 | 0.00 | 0.00 | 0.00 | 75 | 1018.7 |
| 20260503053856 | 47 | 315 | 2.0 | 5.0 | 0.00 | 0.00 | 0.00 | 75 | 1018.7 |
| 20260503053346 | 47 | 315 | 1.0 | 3.0 | 0.00 | 0.00 | 0.00 | 76 | 1018.7 |
| 20260503052835 | 47 | 315 | 1.0 | 3.0 | 0.00 | 0.00 | 0.00 | 75 | 1018.7 |
| 20260503052325 | 47 | 315 | 1.0 | 3.0 | 0.00 | 0.00 | 0.00 | 75 | 1018.7 |
| 20260503051815 | 47 | 315 | 1.0 | 3.0 | 0.00 | 0.00 | 0.00 | 74 | 1018.7 |
| 20260503051305 | 47 | 315 | 1.0 | 2.0 | 0.00 | 0.00 | 0.00 | 73 | 1018.7 |
| 20260503050755 | 47 | 315 | 1.0 | 3.0 | 0.00 | 0.00 | 0.00 | 72 | 1018.7 |
| 20260503050244 | 46 | 315 | 1.0 | 4.0 | 0.00 | 0.00 | 0.00 | 71 | 1018.7 |
| 20260503045734 | 46 | 315 | 1.0 | 2.0 | 0.00 | 0.00 | 0.00 | 70 | 1018.7 |
| 20260503045224 | 46 | 315 | 1.0 | 1.0 | 0.00 | 0.00 | 0.00 | 69 | 1018.7 |
| 20260503044714 | 46 | 315 | 1.0 | 2.0 | 0.00 | 0.00 | 0.00 | 68 | 1018.7 |
| 20260503044204 | 46 | 315 | 1.0 | 3.0 | 0.00 | 0.00 | 0.00 | 68 | 1018.7 |
| 20260503043653 | 46 | 315 | 1.0 | 3.0 | 0.00 | 0.00 | 0.00 | 67 | 1018.7 |
| 20260503043143 | 46 | 315 | 1.0 | 3.0 | 0.00 | 0.00 | 0.00 | 66 | 1018.6 |
| 20260503042633 | 46 | 315 | 0.0 | 1.0 | 0.00 | 0.00 | 0.00 | 66 | 1018.7 |
| 20260503042123 | 46 | 315 | 1.0 | 4.0 | 0.00 | 0.00 | 0.00 | 65 | 1018.7 |
| 20260503041613 | 46 | 315 | 1.0 | 4.0 | 0.00 | 0.00 | 0.00 | 65 | 1018.8 |
| 20260503041102 | 46 | 315 | 1.0 | 3.0 | 0.00 | 0.00 | 0.00 | 63 | 1018.8 |
| 20260503040552 | 47 | 315 | 1.0 | 3.0 | 0.00 | 0.00 | 0.00 | 62 | 1018.9 |
| 20260503040042 | 47 | 315 | 1.0 | 4.0 | 0.00 | 0.00 | 0.00 | 60 | 1018.8 |
| 20260503035532 | 47 | 315 | 1.0 | 3.0 | 0.00 | 0.00 | 0.00 | 60 | 1018.8 |
| 20260503035021 | 47 | 315 | 1.0 | 2.0 | 0.00 | 0.00 | 0.00 | 59 | 1018.9 |
| 20260503034511 | 47 | 315 | 1.0 | 3.0 | 0.00 | 0.00 | 0.00 | 59 | 1018.9 |
| 20260503034001 | 47 | 315 | 1.0 | 4.0 | 0.00 | 0.00 | 0.00 | 58 | 1018.8 |
| 20260503033451 | 47 | 315 | 0.0 | 1.0 | 0.00 | 0.00 | 0.00 | 58 | 1018.8 |
| 20260503032940 | 47 | 315 | 0.0 | 1.0 | 0.00 | 0.00 | 0.00 | 58 | 1018.8 |
| 20260503032430 | 48 | 315 | 0.0 | 2.0 | 0.00 | 0.00 | 0.00 | 57 | 1018.7 |
| 20260503031920 | 48 | 315 | 0.0 | 1.0 | 0.00 | 0.00 | 0.00 | 56 | 1018.8 |
| 20260503031410 | 48 | 315 | 0.0 | 1.0 | 0.00 | 0.00 | 0.00 | 57 | 1018.8 |
| 20260503030859 | 48 | 315 | 0.0 | 1.0 | 0.00 | 0.00 | 0.00 | 56 | 1018.9 |
| 20260503030349 | 48 | 315 | 0.0 | 1.0 | 0.00 | 0.00 | 0.00 | 56 | 1018.8 |
| 20260503025839 | 48 | 315 | 0.0 | 1.0 | 0.00 | 0.00 | 0.00 | 56 | 1018.8 |
| 20260503025328 | 48 | 315 | 0.0 | 1.0 | 0.00 | 0.00 | 0.00 | 56 | 1018.8 |
| 20260503024818 | 48 | 315 | 0.0 | 1.0 | 0.00 | 0.00 | 0.00 | 56 | 1018.8 |
| 20260503024308 | 48 | 315 | 0.0 | 0.0 | 0.00 | 0.00 | 0.00 | 56 | 1018.8 |
| 20260503023757 | 49 | 315 | 0.0 | 0.0 | 0.00 | 0.00 | 0.00 | 56 | 1018.8 |
| 20260503023247 | 49 | 315 | 0.0 | 1.0 | 0.00 | 0.00 | 0.00 | 56 | 1018.8 |
| 20260503022737 | 49 | 315 | 0.0 | 1.0 | 0.00 | 0.00 | 0.00 | 56 | 1018.9 |
| 20260503022226 | 49 | 315 | 0.0 | 1.0 | 0.00 | 0.00 | 0.00 | 56 | 1019.0 |
| 20260503021716 | 49 | 315 | 0.0 | 2.0 | 0.00 | 0.00 | 0.00 | 56 | 1019.0 |
| 20260503021206 | 49 | 315 | 0.0 | 0.0 | 0.00 | 0.00 | 0.00 | 56 | 1019.1 |
| 20260503020655 | 49 | 315 | 0.0 | 1.0 | 0.00 | 0.00 | 0.00 | 56 | 1019.1 |
| 20260503020145 | 48 | 315 | 0.0 | 0.0 | 0.00 | 0.00 | 0.00 | 57 | 1019.2 |
| 20260503015635 | 48 | 315 | 0.0 | 0.0 | 0.00 | 0.00 | 0.00 | 57 | 1019.2 |
| 20260503015124 | 48 | 315 | 0.0 | 0.0 | 0.00 | 0.00 | 0.00 | 57 | 1019.2 |
| 20260503014614 | 48 | 315 | 0.0 | 1.0 | 0.00 | 0.00 | 0.00 | 57 | 1019.1 |
| 20260503014104 | 48 | 315 | 0.0 | 0.0 | 0.00 | 0.00 | 0.00 | 57 | 1019.2 |
| 20260503013554 | 48 | 315 | 0.0 | 1.0 | 0.00 | 0.00 | 0.00 | 58 | 1019.2 |
| 20260503013044 | 48 | 315 | 0.0 | 1.0 | 0.00 | 0.00 | 0.00 | 59 | 1019.2 |
| 20260503012533 | 48 | 315 | 0.0 | 1.0 | 0.00 | 0.00 | 0.00 | 58 | 1019.2 |
| 20260503012023 | 48 | 315 | 0.0 | 1.0 | 0.00 | 0.00 | 0.00 | 58 | 1019.2 |
| 20260503011512 | 48 | 315 | 0.0 | 0.0 | 0.00 | 0.00 | 0.00 | 57 | 1019.2 |
| 20260503011002 | 48 | 315 | 0.0 | 1.0 | 0.00 | 0.00 | 0.00 | 57 | 1019.2 |
| 20260503010452 | 48 | 315 | 0.0 | 0.0 | 0.00 | 0.00 | 0.00 | 57 | 1019.2 |
| 20260503005941 | 48 | 315 | 0.0 | 0.0 | 0.00 | 0.00 | 0.00 | 58 | 1019.2 |
| 20260503005431 | 48 | 315 | 0.0 | 0.0 | 0.00 | 0.00 | 0.00 | 57 | 1019.3 |
| 20260503004921 | 48 | 315 | 0.0 | 1.0 | 0.00 | 0.00 | 0.00 | 57 | 1019.4 |
| 20260503004410 | 48 | 315 | 0.0 | 1.0 | 0.00 | 0.00 | 0.00 | 56 | 1019.4 |
| 20260503003900 | 48 | 315 | 0.0 | 0.0 | 0.00 | 0.00 | 0.00 | 56 | 1019.4 |
| 20260503003350 | 48 | 315 | 0.0 | 0.0 | 0.00 | 0.00 | 0.00 | 56 | 1019.5 |
| 20260503002840 | 49 | 315 | 0.0 | 0.0 | 0.00 | 0.00 | 0.00 | 56 | 1019.6 |
| 20260503002329 | 49 | 315 | 0.0 | 0.0 | 0.00 | 0.00 | 0.00 | 55 | 1019.6 |
| 20260503001819 | 49 | 315 | 0.0 | 0.0 | 0.00 | 0.00 | 0.00 | 55 | 1019.6 |
| 20260503001309 | 49 | 315 | 0.0 | 1.0 | 0.00 | 0.00 | 0.00 | 56 | 1019.6 |
| 20260503000758 | 49 | 315 | 0.0 | 1.0 | 0.00 | 0.00 | 0.00 | 55 | 1019.7 |
| 20260503000248 | 49 | 315 | 0.0 | 2.0 | 0.00 | 0.00 | 0.00 | 55 | 1019.7 |
| 20260502235738 | 49 | 315 | 0.0 | 1.0 | 0.00 | 0.00 | 0.00 | 55 | 1019.7 |
| 20260502235227 | 49 | 315 | 0.0 | 0.0 | 0.00 | 0.00 | 0.00 | 54 | 1019.7 |
| 20260502234717 | 49 | 315 | 0.0 | 1.0 | 0.00 | 0.00 | 0.00 | 54 | 1019.8 |
| 20260502234206 | 49 | 315 | 0.0 | 0.0 | 0.00 | 0.00 | 0.00 | 54 | 1019.9 |
| 20260502233656 | 49 | 315 | 0.0 | 0.0 | 0.00 | 0.00 | 0.00 | 54 | 1019.9 |
| 20260502232635 | 49 | 315 | 0.0 | 1.0 | 0.00 | 0.00 | 0.00 | 54 | 1019.9 |
| 20260502232125 | 49 | 315 | 0.0 | 0.0 | 0.00 | 0.00 | 0.00 | 54 | 1020.0 |
| 20260502231104 | 50 | 315 | 0.0 | 0.0 | 0.00 | 0.00 | 0.00 | 53 | 1020.0 |
| 20260502230554 | 50 | 315 | 0.0 | 0.0 | 0.00 | 0.00 | 0.00 | 53 | 1020.0 |
| 20260502230044 | 50 | 315 | 0.0 | 1.0 | 0.00 | 0.00 | 0.00 | 53 | 1020.1 |
| 20260502225533 | 50 | 315 | 0.0 | 1.0 | 0.00 | 0.00 | 0.00 | 53 | 1020.1 |
| 20260502224512 | 50 | 315 | 0.0 | 1.0 | 0.00 | 0.00 | 0.00 | 53 | 1020.2 |
| 20260502224002 | 50 | 315 | 0.0 | 0.0 | 0.00 | 0.00 | 0.00 | 53 | 1020.2 |
| 20260502223452 | 50 | 315 | 0.0 | 1.0 | 0.00 | 0.00 | 0.00 | 53 | 1020.2 |
| 20260502222941 | 50 | 315 | 0.0 | 1.0 | 0.00 | 0.00 | 0.00 | 53 | 1020.3 |
| 20260502222431 | 50 | 315 | 0.0 | 0.0 | 0.00 | 0.00 | 0.00 | 52 | 1020.3 |
| 20260502221920 | 50 | 315 | 0.0 | 0.0 | 0.00 | 0.00 | 0.00 | 52 | 1020.4 |
| 20260502221410 | 50 | 315 | 0.0 | 0.0 | 0.00 | 0.00 | 0.00 | 51 | 1020.4 |
| 20260502220350 | 51 | 315 | 0.0 | 1.0 | 0.00 | 0.00 | 0.00 | 51 | 1020.4 |
| 20260502215839 | 51 | 315 | 0.0 | 2.0 | 0.00 | 0.00 | 0.00 | 52 | 1020.3 |
| 20260502215328 | 51 | 315 | 0.0 | 2.0 | 0.00 | 0.00 | 0.00 | 50 | 1020.3 |
| 20260502214307 | 51 | 315 | 0.0 | 1.0 | 0.00 | 0.00 | 0.00 | 52 | 1020.4 |
| 20260502213757 | 51 | 315 | 0.0 | 0.0 | 0.00 | 0.00 | 0.00 | 49 | 1020.4 |
| 20260502213247 | 52 | 315 | 0.0 | 1.0 | 0.00 | 0.00 | 0.00 | 49 | 1020.4 |
| 20260502212736 | 52 | 315 | 0.0 | 1.0 | 0.00 | 0.00 | 0.00 | 49 | 1020.5 |
| 20260502212225 | 52 | 315 | 0.0 | 0.0 | 0.00 | 0.00 | 0.00 | 48 | 1020.5 |
| 20260502211204 | 53 | 315 | 0.0 | 1.0 | 0.00 | 0.00 | 0.00 | 47 | 1020.6 |
| 20260502210654 | 53 | 315 | 0.0 | 2.0 | 0.00 | 0.00 | 0.00 | 47 | 1020.6 |
| 20260502210143 | 54 | 315 | 1.0 | 2.0 | 0.00 | 0.00 | 0.00 | 47 | 1020.7 |
| 20260502205122 | 54 | 315 | 1.0 | 2.0 | 0.00 | 0.00 | 0.00 | 47 | 1020.7 |
| 20260502204612 | 54 | 315 | 0.0 | 1.0 | 0.00 | 0.00 | 0.00 | 46 | 1020.6 |